ANIK G1

Last updated on Thu Nov 21 2024 00:02:42 GMT+0000 (Coordinated Universal Time)

1 39127U 13014A 24324.61304044 -.00000073 00000+0 00000+0 0 9997 2 39127 0.0560 99.1370 0003515 155.9923 277.4127 1.00271761 42485
UTC large
Height (km)
Speed (km/s)
/
Latitude / Longitude
Inclination (degrees)
Orbital Period (minutes)
Azimuth
Elevation
Range (km)
Doppler Factor

Next 0 passes for location: London (51.5072 / 0.1276)

Sorry there are no passes over London.